Location: Vancouver
(49.2500°N, 123.1330°W)
Time: 17:27:31
(UTC-08:00)

Cosmos 676 Rocket - Visible Passes

Search period start: 25 November 2014 00:00
Search period end: 05 December 2014 00:00
Orbit: 755 x 786 km, 74.0° (Epoch: 25 November)

Date Brightness Start Highest point End Pass type
(mag) Time Alt. Az. Time Alt. Az. Time Alt. Az.
25 Nov 6.3 04:31:17 10° SSE 04:35:20 23° E 04:39:26 10° NE visible
25 Nov 4.0 06:11:47 10° SW 06:17:01 60° WNW 06:22:19 10° NNE visible
26 Nov 6.9 03:56:39 10° SE 03:59:22 14° E 04:02:07 10° ENE visible
26 Nov 4.0 05:35:22 10° SSW 05:40:40 89° ESE 05:46:03 10° NNE visible
27 Nov 4.6 04:59:14 10° S 05:04:25 58° ESE 05:09:39 10° NNE visible
27 Nov 5.0 06:42:27 10° WSW 06:46:55 27° NW 06:51:25 10° N visible
28 Nov 5.4 04:23:55 12° SSE 04:28:15 37° ESE 04:33:07 10° NE visible
28 Nov 4.5 06:05:24 10° SW 06:10:21 39° WNW 06:15:21 10° NNE visible
29 Nov 6.1 03:50:56 22° ESE 03:52:11 24° E 03:56:21 10° NE visible
29 Nov 4.0 05:31:23 30° SW 05:33:54 58° WNW 05:39:11 10° NNE visible
30 Nov 6.7 03:16:53 15° E 03:16:53 15° E 03:19:05 10° ENE visible
30 Nov 3.9 04:57:17 82° SW 04:57:32 88° WNW 05:02:55 10° NNE visible
30 Nov 5.4 06:37:42 13° W 06:40:28 19° NW 06:44:11 10° N visible
01 Dec 5.0 04:22:45 43° NE 04:22:45 43° NE 04:26:32 10° NNE visible
01 Dec 5.0 06:03:08 25° WNW 06:03:48 26° NW 06:08:16 10° N visible
02 Dec 6.2 03:47:57 22° NE 03:47:57 22° NE 03:50:00 10° NE visible
02 Dec 4.8 05:28:19 34° NNW 05:28:19 34° NNW 05:32:12 10° N visible
03 Dec 6.9 03:12:58 11° NE 03:12:58 11° NE 03:13:14 10° NE visible
03 Dec 5.3 04:53:19 29° N 04:53:19 29° N 04:56:02 10° NNE visible
03 Dec 5.8 06:33:40 13° NW 06:34:08 13° NW 06:36:37 10° NNW visible
04 Dec 6.0 04:18:11 20° NNE 04:18:11 20° NNE 04:19:46 10° NNE visible
04 Dec 5.7 05:58:32 17° NNW 05:58:32 17° NNW 06:01:00 10° N visible
